Reflectivity
-20 -20 -7 -6 12 15 15 -3 -2 -8 -13 -20 -20 -20 -20 -20 -20 -20 -20 -20 0 -2 -20 -20 -18 -11 -13 -20 -9 -20 -18 -20 -6 -14 17 18 7 15 -18 -20 -14 -2 -3 -3 -19 5 -6 -20 -20 -20 -20 -20 -20 -20
-20 -20 -20 -5 -19 15 12 -3 -19 -20 -18 -20 -20 -20 -19 -16 4 -20 -20 -19 -19 8 -20 -20 -20 -18 2 -20 7 -20 -19 -10 -17 -17 -7 -19 -1 -6 24 -16 -14 20 16 -20 -20 -20 -20 -20 -20 0 -20 -20 -20 -20
-20 -20 -20 -20 -20 -9 7 14 -12 -20 -20 -20 -20 -20 -20 -20 6 1 -20 -20 -20 -20 -20 -20 -20 -12 -19 -20 -19 -6 -20 -4 -5 17 4 -20 -19 -2 0 15 15 16 30 20 6 -18 -20 -20 -17 -11 5 -20 -20 -20
-20 -20 -20 -20 -20 -3 8 16 -16 -20 -20 -20 -20 -20 -20 -20 -18 -20 -20 -20 -20 -20 -20 -20 -20 -20 -20 -20 -20 -19 -20 -11 12 7 5 -20 -12 -2 3 2 16 25 6 16 23 12 -4 -18 -0 -5 -20 -20 -20 -20
-20 -20 -20 -20 -20 -20 4 12 -11 -20 -20 -20 -20 -20 -20 -20 -20 -20 -20 -20 -20 -20 -20 -20 -20 -20 -20 -20 -20 -20 -20 -20 -17 -14 -9 -18 -20 -13 4 -20 -20 0 9 -9 -15 -4 -2 -18 -14 -19 -20 -20 -20 -20
-20 -20 -20 -20 -20 -20 -20 8 -20 -20 -20 -20 -20 -20 -20 -20 -20 -20 -20 -20 -20 -20 -20 -20 -20 -20 -20 -20 -20 -20 -20 -20 -20 -12 -15 -20 1 -16 -9 -6 8 8 13 16 2 -20 -16 -20 -20 -20 -19 -20 -20 -20
-20 -20 -20 -20 -20 -20 -20 -19 -20 -20 -20 -20 -20 -20 -20 -20 -20 -20 -20 -20 -20 -20 -20 -20 -20 -20 -20 -20 -20 -20 -20 -20 -20 -4 -18 -20 -11 0 -15 -17 -20 4 3 20 13 13 -10 1 -5 -10 7 10 11 7
-20 -20 -20 -20 -20 -20 -20 -20 -20 -20 -20 -20 -20 -20 -20 -20 -20 -20 -20 -20 -20 -20 -20 -20 -20 -20 -20 -20 -20 -20 -20 -20 -18 -20 -20 -20 -20 -3 -1 0 -2 -5 -19 -19 -8 9 10 5 -2 16 16 17 13 18
-20 -20 -20 -20 -20 -20 -20 -20 -20 -20 -20 -20 -20 -20 -20 -20 -20 -20 -20 -20 -20 -20 -20 -20 -20 -20 -20 -20 -20 -20 -20 -20 -12 -20 -20 -20 -20 -20 -2 -12 2 3 7 -1 -20 -18 -9 -4 -18 7 13 15 15 14
-20 -20 -20 -20 -20 -20 -20 -20 -20 -20 -20 -20 -20 -20 -20 -20 -20 -20 -20 -20 -20 -20 -20 -20 -20 -20 -20 -20 -20 -20 -20 -20 -20 -2 -20 -20 -20 -20 -20 -9 -14 -13 1 4 -12 -20 -20 -20 -10 0 8 15 20 17
-20 -20 -20 -20 -20 -20 -20 -9 -20 -20 -20 -20 -20 -20 -20 -20 -20 -20 -20 -20 -20 -20 -20 -20 -20 -20 -20 -20 -20 -20 -20 -20 -20 -20 -20 -20 -20 -20 -20 -20 -20 -20 -20 -20 -17 5 5 2 3 10 12 17 18 18
-20 -20 -20 -20 -20 -20 -20 -16 -20 -20 -20 -20 -20 -20 -20 -20 -20 -20 -20 -20 -20 -20 -20 -20 -20 -20 -20 -20 -20 -20 -20 -20 -20 -20 -20 -20 -20 -20 -20 -20 -20 -20 -20 -20 -20 -9 5 13 15 15 14 18 21 20
-7 -14 -20 -19 3 -16 -20 -20 -20 -20 -20 -20 -20 -20 -20 -20 -20 -20 -20 -20 -20 -20 -20 -20 -20 -20 -20 -20 -20 -20 -20 -20 -20 -20 -20 -20 -20 -20 -20 -20 -20 -20 -20 -15 -2 7 11 15 16 16 18 20 21 20
-20 -9 -20 -20 -2 -1 -19 -20 -20 -20 -20 -20 -20 -20 -20 -20 -20 -20 -20 -20 -20 -20 -20 -20 -20 -20 -20 -20 -20 -20 -20 -20 -20 -20 -20 -20 -20 -20 -20 -20 -20 -20 -17 -2 6 12 14 15 18 19 17 18 19 16
-20 -12 -20 5 1 -2 1 -20 -20 -20 -20 -20 -20 -20 -20 -20 -20 -20 -20 -20 -20 -20 -20 -20 -20 -20 -20 -20 -20 -20 -20 -20 -20 -20 -20 -20 -20 -20 -20 -20 -20 -20 -7 -4 6 10 13 15 16 16 16 16 16 15
9 22 14 9 -9 17 20 -6 -20 -19 -20 -20 -20 -16 -9 -15 -20 -20 -20 -20 -20 -20 -20 -20 -20 -20 -20 -20 -20 -20 -20 -20 -20 -20 -20 -20 -20 -20 -20 -20 -20 -20 -10 2 4 9 12 13 14 16 16 14 12 9
21 24 1 4 20 23 27 5 -20 -20 -17 -20 -20 -20 -3 3 -2 -20 -20 -20 -20 -20 -20 -20 -20 -20 -20 -20 -20 -20 -20 -20 -20 -20 -20 -20 -20 -20 -20 -20 -20 -20 -20 -6 5 7 9 11 14 14 13 13 11 7
32 27 21 20 27 22 18 0 -3 -9 -20 -20 -20 -17 5 7 6 -10 -20 -20 -20 -20 -20 -20 -20 -20 -20 -20 -20 -20 -20 -20 -20 -20 -20 -20 -20 -20 -20 -20 -20 -20 -20 -20 -17 -1 6 7 7 7 7 6 6 5
29 26 31 36 32 21 15 -2 -19 -20 -20 -20 -20 -11 3 13 12 -0 -20 -20 -20 -20 -20 -20 -20 -20 -20 -20 -20 -20 -20 -20 -20 -20 -20 -20 -20 -20 -20 -20 -20 -20 -20 -10 -4 -6 -3 3 5 6 5 5 3 -0
37 35 28 36 28 22 18 3 -19 -20 -20 -20 -20 -20 1 12 16 8 -17 -20 -20 -20 -20 -20 -20 -20 -20 -20 -20 -20 -20 -20 -20 -20 -20 -20 -20 -20 -20 -20 -20 -20 -20 -19 -5 -2 -7 -2 2 6 8 5 1 -6
36 33 33 26 18 24 15 -0 -19 -20 -20 -20 -20 -20 -13 11 13 9 -3 -20 -20 -20 -20 -20 -20 -20 -20 -20 -20 -20 -20 -20 -20 -20 -20 -20 -20 -20 -20 -20 -20 -20 -20 -20 -20 -4 -9 -15 -4 1 1 -3 -14 -20
23 21 22 25 25 21 18 9 -3 -20 -20 -20 -20 -20 -9 10 9 6 10 -9 -20 -20 -20 -20 -20 -20 -20 -20 -20 -20 -20 -20 -20 -19 -5 -9 -20 -20 -20 -20 -20 -20 -20 -20 -20 -20 -20 -20 -20 -20 -17 -15 -20 -20
23 22 23 23 23 22 14 -6 -10 -7 -19 -20 -20 -14 8 9 2 3 3 -20 -20 -20 -20 -20 -20 -20 -20 -20 -20 -20 -20 -20 -20 -20 -20 -20 -20 -20 -20 -20 -20 -20 -20 -20 -20 -20 -20 -10 -17 -20 -20 -20 -20 -20
26 24 24 21 20 15 0 -20 -19 -20 -20 -20 -20 4 8 2 4 6 -13 -20 -20 -20 -20 -20 -20 -20 -20 -20 -20 -20 -20 -20 -20 -20 -20 -20 -20 -20 -20 -20 -20 -20 -20 -20 -20 -20 -20 -20 -20 -20 -20 -20 -20 -20
26 25 24 19 3 -18 -20 -20 -20 -20 -20 -17 8 13 8 5 7 -2 -20 -20 -20 -20 -20 -20 -20 -20 -20 -20 -20 -20 -20 -20 -20 -20 -20 -20 -20 -20 -20 -20 -20 -20 -20 -20 -20 -20 -20 -20 -20 -20 -20 -20 -20 -20
25 23 17 5 -20 -20 -20 -20 -20 -20 -4 11 15 9 4 7 4 -18 -20 -20 -20 -20 -20 -20 -20 -20 -20 -20 -20 -20 -20 -20 -20 -20 -20 -20 -20 -20 -20 -20 -20 -20 -20 -20 -20 -20 -20 -20 -20 -20 -20 -20 -20 -20
22 17 6 -3 -5 -20 -20 -20 -15 8 12 12 9 3 8 6 -16 -20 -20 -20 -20 -20 -20 -20 -20 -20 -20 -20 -20 -20 -20 -20 -20 -20 -20 -20 -20 -20 -20 -20 -20 -20 -20 -20 -20 -20 -20 -20 -20 -20 -20 -20 -20 -20
8 3 -5 -15 -20 -20 -4 7 11 7 9 8 4 1 7 -0 -16 -20 -20 -20 -20 -20 -20 -20 -20 -20 -20 -20 -20 -20 -20 -20 -20 -20 -20 -20 -20 -20 -20 -20 -20 -17 -20 -20 -20 -20 -20 -20 -20 -20 -20 -20 -20 -20
-20 -20 -20 -20 -4 15 19 15 12 14 6 7 10 7 8 -4 -3 -3 -20 -20 -20 -20 -20 -20 -20 -20 -20 -20 -20 -20 -20 -20 -20 -20 -20 -20 -20 -20 -20 -20 -20 -20 -20 -20 -19 2 -11 -18 -4 -6 -20 -20 -20 -20
-20 -19 -1 10 14 15 13 13 12 9 11 11 8 4 -1 -0 -3 -15 -20 -20 -20 -20 -20 -20 -20 -20 -20 -20 -20 -20 -20 -20 -20 -20 -20 -20 -20 -20 -20 -20 -20 -20 -20 -20 -20 -20 -13 -19 -20 -20 -20 -20 -20 -20
-14 1 7 8 10 8 11 12 8 1 -5 -7 -5 -8 -7 -8 -16 -20 -20 -20 -20 -20 -20 -20 -20 -20 -20 -20 -20 -20 -20 -20 -20 -20 -20 -20 -20 -20 -20 -20 -20 -20 -20 -20 -20 -20 -20 -20 -20 -20 -20 -20 -20 -20
-3 4 8 6 -0 1 -3 -16 -19 -20 -20 -16 -20 -19 -19 -20 -20 -20 -20 -20 -20 -20 -20 -20 -20 -20 -20 -20 -20 -20 -20 -20 -20 -20 -20 -20 -20 -20 -20 -20 -20 -20 -20 -20 -20 -20 -20 -20 -20 -20 -20 -20 -20 -20
11 9 9 7 -1 -14 -14 -20 -20 -20 -20 -20 -20 -20 -20 -20 -20 -20 -20 -20 -20 -20 -20 -20 -20 -20 -20 -20 -20 -20 -20 -20 -17 -15 -1 -2 -1 -15 -18 -20 -20 -20 -20 -20 -20 -20 -20 -20 -20 -20 -20 -20 -20 -20
Wind_Speed
16 18 20 23 22 23 25 26 26 27 29 28 25 20 16 12 9 4 3 1 1 2 7 2 2 2 3 4 4 8 8 3 4 6 4 5 4 3 1 3 3 6 8 5 4 3 7 4 4 8 4 6 4 6
16 18 20 21 23 24 25 26 26 27 28 27 24 18 15 13 8 4 1 2 1 3 5 3 7 6 5 3 4 3 4 3 3 4 4 5 4 5 6 3 4 2 6 2 3 3 3 5 4 6 5 4 4 5
15 17 19 21 22 24 26 26 27 27 28 27 23 17 13 12 9 3 2 4 3 3 5 4 3 2 2 3 3 4 3 4 3 1 2 3 5 4 5 4 5 12 14 4 3 8 12 8 12 12 9 6 6 3
15 17 18 20 22 24 26 26 27 28 28 27 23 17 12 10 6 6 4 3 3 0 2 7 3 5 2 2 7 11 13 6 4 3 4 3 3 5 4 4 6 6 13 15 5 9 14 7 15 18 17 9 7 10
14 17 19 20 21 23 26 27 27 28 29 27 21 15 11 8 8 5 3 1 2 4 2 5 8 3 6 14 16 7 10 7 3 3 2 2 3 5 3 4 5 9 7 7 7 18 10 14 18 22 11 8 7 11
15 15 17 20 21 22 24 26 27 28 29 27 20 12 9 6 7 1 3 1 2 2 1 4 4 6 12 17 10 6 2 1 1 2 2 3 4 5 3 3 4 14 13 11 9 17 20 22 15 12 6 8 8 10
16 16 16 18 20 22 23 25 26 28 30 27 18 8 7 7 3 4 4 5 10 1 2 5 8 6 7 6 5 4 5 1 2 2 3 3 6 5 4 6 18 18 17 20 15 17 9 1 6 9 6 9 11 11
16 16 17 17 19 20 22 24 26 28 29 24 16 4 6 8 6 4 3 11 3 5 5 5 7 8 7 5 5 4 4 3 4 2 3 3 4 5 3 14 16 17 19 13 18 16 10 6 7 8 6 8 12 11
16 16 16 16 18 19 21 23 25 27 29 18 9 7 4 5 4 3 13 7 4 5 5 4 2 6 7 4 3 5 2 3 1 3 3 4 4 8 10 16 16 17 14 17 20 8 9 8 8 8 7 8 11 10
17 17 15 16 17 17 19 21 23 27 23 10 6 5 5 3 11 6 9 7 8 6 6 3 1 4 4 4 5 5 3 3 3 3 3 5 4 2 7 10 10 12 14 14 10 10 8 9 9 9 9 7 9 10
18 16 15 15 15 17 17 18 20 22 10 5 4 0 4 10 4 5 5 6 4 6 2 2 2 3 3 1 4 3 4 4 3 5 3 3 3 9 11 11 10 10 11 11 9 7 9 8 8 7 9 9 10 12
19 17 16 15 14 16 15 15 16 4 1 3 2 2 3 6 5 8 1 4 4 3 3 1 3 2 4 3 3 4 3 4 4 3 5 2 3 9 11 12 12 11 11 11 11 11 11 13 11 11 10 10 11 11
19 18 17 15 14 14 15 11 12 10 3 3 5 5 5 4 7 6 2 5 3 3 2 3 4 1 5 2 3 3 4 3 3 5 1 3 4 7 9 9 11 11 12 12 14 13 14 14 16 14 12 12 12 12
20 18 18 16 13 14 10 6 9 4 4 4 4 5 4 4 3 5 5 5 4 2 1 1 2 1 2 4 2 2 3 4 4 3 3 2 4 6 7 7 7 10 10 11 11 11 13 12 12 13 14 12 11 11
22 19 18 17 13 12 3 3 4 3 3 1 3 4 4 3 1 2 2 3 1 3 3 3 3 1 3 3 2 4 7 3 4 5 2 2 4 4 6 6 6 7 7 7 8 8 10 10 10 11 11 10 10 9
22 18 15 18 14 9 8 5 2 2 3 3 1 3 1 2 2 1 2 2 2 3 3 3 2 4 2 2 4 4 4 6 4 3 3 2 4 5 5 5 4 4 5 5 5 6 7 8 8 8 9 9 8 8
23 5 12 12 10 12 8 3 2 2 4 4 4 1 3 2 3 4 4 3 3 4 2 3 3 6 1 3 3 5 6 4 3 3 2 2 3 4 5 4 3 3 3 4 4 5 5 5 6 8 9 7 6 7
8 4 15 18 13 6 3 2 2 3 6 4 3 3 2 2 4 2 2 3 4 3 4 4 4 3 5 5 5 4 3 3 2 2 2 3 3 4 3 3 2 2 1 2 3 3 4 5 6 5 5 5 5 5
9 12 17 24 8 4 4 1 2 5 4 1 2 2 2 3 2 2 4 3 3 2 6 3 3 5 6 5 4 3 3 3 2 3 3 5 4 3 3 3 1 2 1 1 1 2 2 4 3 3 3 3 3 3
20 23 21 26 12 4 3 2 0 3 3 2 2 3 3 3 3 4 3 2 3 3 2 4 8 5 5 4 4 3 3 3 3 2 3 2 2 2 2 2 1 2 1 1 2 4 1 2 2 2 2 3 2 3
11 7 16 6 3 2 1 4 1 2 3 2 2 3 3 2 3 3 3 2 2 5 5 6 4 3 2 2 3 3 3 4 4 4 4 2 3 2 1 1 2 2 1 1 1 2 4 1 1 1 2 2 2 1
4 12 5 2 4 2 3 1 2 1 3 2 3 2 3 3 3 3 4 2 6 5 5 4 4 5 4 3 4 4 4 5 2 2 6 5 1 1 1 1 1 1 1 1 1 1 1 1 0 2 2 2 3 2
12 4 3 3 4 3 2 1 3 3 4 5 2 3 2 3 2 2 4 5 5 4 3 3 4 2 5 3 4 2 4 5 2 2 2 2 2 2 1 1 1 2 2 1 1 1 0 2 3 3 2 3 2 2
6 6 6 7 2 5 2 1 0 3 2 3 4 4 4 3 4 2 6 4 3 3 4 5 5 4 3 3 2 3 4 4 2 1 2 2 1 1 1 1 1 0 0 2 2 1 1 1 3 2 2 2 2 2
6 6 6 5 2 7 5 4 3 4 4 4 5 4 4 4 3 4 5 4 3 4 5 5 4 2 4 2 1 2 2 4 4 3 3 3 1 1 1 1 1 1 1 2 2 1 1 0 1 2 2 2 3 3
7 5 7 7 3 6 8 8 8 6 4 5 4 3 3 3 3 8 5 3 3 5 7 8 8 5 2 3 3 3 4 4 4 2 3 4 4 3 3 2 2 2 2 2 2 2 1 1 2 3 3 4 8 4
7 6 2 1 5 5 3 2 3 4 7 7 5 6 4 5 7 5 1 1 2 2 5 6 6 5 4 4 1 1 3 5 5 4 2 2 3 3 3 3 3 1 4 3 3 3 3 3 4 4 4 3 3 4
3 2 7 6 2 1 5 4 7 8 5 4 8 7 7 6 2 2 2 1 2 3 5 4 3 3 3 2 3 4 2 2 2 2 2 2 2 3 3 3 3 8 4 3 4 4 4 5 5 6 5 5 5 3
3 1 4 4 3 3 2 2 3 2 3 4 4 3 2 2 2 1 1 2 2 4 6 5 3 3 4 3 3 2 3 4 5 3 3 3 2 2 3 3 2 1 1 2 8 7 6 7 7 5 4 3 2 2
1 2 3 2 2 2 3 3 2 1 2 2 2 2 2 2 1 1 2 2 2 2 2 2 4 3 3 4 2 2 1 3 4 5 5 4 5 2 3 3 3 3 2 3 3 3 8 4 5 4 3 3 2 3
3 2 4 4 3 2 2 2 2 1 2 2 3 2 2 1 1 1 1 1 3 3 4 3 1 1 4 3 3 2 3 2 5 6 4 3 2 3 3 4 3 3 3 3 3 3 2 2 2 3 4 5 7 5
3 4 2 3 2 1 2 2 2 2 2 2 3 2 1 0 1 1 1 3 3 2 5 4 3 4 6 3 2 2 2 3 4 5 7 3 4 5 5 4 3 4 5 5 4 4 4 5 4 4 5 7 7 7
2 2 2 3 2 1 0 0 2 2 3 2 3 3 2 2 3 2 1 2 3 4 4 5 4 3 4 5 5 4 5 3 6 9 12 13 14 12 7 5 6 7 7 6 6 4 6 5 5 6 7 7 7 7
Wind_Direction
348 349 349 352 357 352 354 354 355 355 356 359 357 360 357 5 8 79 277 254 179 257 292 225 226 285 322 343 337 310 330 359 316 6 341 335 296 234 281 236 184 190 183 188 164 148 259 30 304 178 259 325 348 324
342 345 345 346 350 351 352 353 354 354 355 358 356 0 358 0 21 62 355 328 332 227 256 268 246 219 184 229 293 323 252 278 325 344 356 321 309 332 329 238 24 256 326 201 181 156 360 357 351 317 305 265 296 310
336 339 341 342 345 347 348 350 351 352 353 356 354 354 357 351 356 44 67 327 26 26 316 7 315 15 159 205 183 292 282 307 288 192 282 265 292 354 353 27 289 0 15 353 265 16 349 359 4 353 326 310 300 312
330 333 336 338 341 344 347 347 349 349 351 354 352 349 352 354 40 84 87 310 72 86 295 283 342 298 279 252 250 230 256 271 260 243 225 250 309 26 8 31 53 337 326 331 319 11 338 24 5 339 323 343 26 51
323 328 330 334 338 341 344 345 348 346 349 351 350 347 350 360 105 78 87 73 102 106 225 279 308 276 3 346 327 292 217 248 287 290 248 341 33 356 78 85 47 349 2 347 291 322 306 298 323 320 331 353 5 94
314 321 325 328 332 337 341 343 344 342 345 349 349 350 355 12 139 359 9 10 353 153 311 308 294 348 337 336 331 331 303 230 278 297 9 59 53 345 31 66 56 347 320 298 286 295 287 278 293 319 337 7 50 75
306 313 320 324 328 333 336 340 342 341 342 347 348 357 29 64 76 96 162 268 340 166 12 334 335 329 325 330 329 329 332 29 89 27 43 49 19 25 52 5 332 328 318 310 297 311 284 343 320 335 36 62 71 67
297 304 312 319 323 328 333 338 341 340 340 346 348 61 85 85 63 25 325 342 1 87 64 60 301 335 360 330 325 339 316 354 18 87 43 63 40 25 59 333 323 325 321 309 323 316 322 328 6 11 29 73 73 70
287 293 304 313 319 325 329 336 338 339 338 344 349 113 52 38 37 259 320 49 39 94 102 70 13 303 358 311 303 321 352 340 17 62 64 76 29 41 328 324 326 330 325 311 313 316 354 12 23 27 50 69 88 86
279 287 297 306 314 320 325 334 340 339 340 352 34 43 3 284 308 4 6 19 18 346 29 96 132 288 12 329 301 332 333 300 354 69 86 66 107 335 329 321 317 324 328 335 340 343 340 15 19 33 46 56 80 87
271 278 286 294 306 312 321 334 343 342 13 28 31 316 250 328 46 33 39 62 326 11 14 249 168 296 355 342 293 296 309 293 352 8 65 59 15 345 337 334 336 336 342 350 349 358 23 23 24 38 51 61 76 82
266 269 275 284 296 303 314 333 348 28 189 237 264 1 359 34 32 74 334 333 53 280 333 46 274 233 298 300 286 302 295 339 10 19 58 28 277 337 337 337 341 349 358 9 11 20 31 39 36 44 47 53 62 71
259 261 265 271 284 296 308 329 342 340 41 59 43 41 46 319 38 89 330 314 350 307 324 355 319 51 334 357 296 320 5 322 324 39 42 208 302 334 335 337 341 354 3 16 20 24 31 37 39 38 43 42 56 60
254 254 257 260 273 285 303 329 349 19 66 68 79 316 113 315 234 181 178 181 220 153 26 106 282 78 279 360 287 25 281 45 45 27 263 272 291 320 329 337 346 353 4 12 19 25 34 36 40 38 35 37 47 52
252 245 249 249 260 277 241 354 72 58 99 194 99 241 209 196 67 211 193 97 133 119 87 26 6 77 311 4 29 351 9 331 197 229 244 295 311 315 326 338 348 354 360 11 9 29 35 38 42 43 35 35 39 47
251 249 244 233 246 244 127 105 58 89 53 128 149 134 115 70 289 318 183 216 174 110 98 64 95 40 330 118 28 217 120 232 245 228 258 309 321 323 319 328 339 349 359 4 15 29 40 41 43 48 49 42 39 45
250 207 203 213 171 111 118 106 92 54 206 183 237 175 164 119 178 178 153 184 136 97 152 112 62 227 337 22 288 196 207 213 202 264 258 265 285 301 315 321 348 355 11 7 8 33 45 43 54 58 56 39 45 45
228 194 184 167 135 101 50 49 129 155 239 210 196 169 146 62 120 137 153 146 119 124 129 204 121 103 199 192 241 231 217 235 218 221 255 270 282 299 313 322 330 333 346 6 34 35 47 51 60 56 52 38 54 41
198 163 178 156 147 117 137 215 144 233 214 164 105 101 85 102 70 75 102 95 90 112 112 64 112 204 226 211 201 216 221 188 209 260 260 265 248 272 307 317 311 313 332 3 102 80 63 52 48 53 62 47 56 38
235 172 171 167 135 131 165 221 130 152 188 183 105 131 93 94 106 103 106 105 104 102 96 193 216 209 192 210 178 168 171 163 123 12 307 308 249 262 272 300 302 315 270 234 200 148 109 83 44 23 88 76 61 36
116 164 139 108 78 69 113 139 162 182 142 129 138 136 109 130 138 161 175 150 79 211 231 214 212 224 189 147 145 130 154 151 174 172 201 277 279 229 246 248 271 253 236 155 106 59 85 76 43 52 51 56 51 342
120 107 102 87 100 89 87 12 106 130 90 104 128 146 143 176 179 190 126 174 230 225 201 179 182 153 149 160 187 184 173 149 162 236 267 277 327 288 200 222 294 239 139 98 114 133 111 335 142 62 46 38 20 344
108 97 92 133 123 171 127 296 138 181 156 171 118 178 199 187 124 134 244 224 252 216 162 153 146 121 138 137 109 116 165 151 181 211 266 253 259 259 254 164 262 251 168 147 131 143 163 16 16 80 18 19 14 20
128 146 158 174 149 114 107 79 129 130 111 176 172 198 194 153 143 184 254 242 220 137 162 153 135 105 77 73 165 199 192 166 159 290 222 166 260 209 200 225 230 262 343 120 149 138 101 17 32 29 16 360 357 342
142 198 159 138 112 123 143 154 183 194 190 176 178 187 174 164 182 221 237 255 166 177 157 144 148 128 146 171 180 226 196 147 158 193 261 174 170 315 250 162 187 214 137 138 158 155 141 25 13 2 343 318 298 302
201 169 192 153 143 163 170 159 189 186 150 168 193 103 171 172 202 238 230 208 184 170 173 176 169 162 210 175 152 168 204 162 117 125 268 184 171 162 183 182 192 186 172 149 144 176 215 246 285 305 288 299 317 353
195 179 138 25 126 125 125 122 136 159 177 183 163 166 162 206 231 244 184 226 157 190 157 156 161 163 161 159 180 191 147 154 155 182 195 175 184 182 163 183 213 231 154 173 189 209 240 265 273 274 273 276 240 253
74 139 164 164 129 172 141 171 177 187 170 147 139 182 190 207 242 48 28 27 74 83 84 75 79 116 127 145 142 123 97 85 57 11 318 284 239 227 212 221 227 242 174 202 218 228 232 244 256 261 256 267 280 253
54 80 110 113 144 176 154 190 189 73 22 167 174 168 170 56 31 30 45 91 83 112 112 115 76 83 75 63 60 78 124 132 122 145 210 251 324 256 194 200 208 249 272 279 289 286 243 238 242 244 252 259 271 298
42 344 86 84 136 116 38 340 33 12 24 46 48 112 99 79 58 33 113 121 125 130 114 111 128 130 155 145 199 312 230 180 177 155 173 206 221 208 160 177 210 234 239 249 264 293 308 326 336 2 2 338 320 296
335 71 74 47 70 16 339 316 295 50 46 48 7 54 67 61 107 51 95 108 106 105 111 109 115 186 139 160 153 127 295 238 208 216 207 193 206 220 231 226 223 220 225 233 243 241 251 298 253 278 289 288 288 309
29 30 96 98 85 328 304 12 33 49 32 48 37 33 50 227 201 158 139 110 101 144 214 159 152 226 210 207 195 225 220 169 183 200 207 223 233 235 237 232 208 224 235 233 222 212 215 229 250 253 262 274 276 273
89 77 91 109 107 111 342 203 56 87 48 56 44 9 13 339 252 277 321 171 171 185 198 204 208 201 181 178 194 225 240 205 229 227 232 234 229 230 225 223 230 227 225 228 226 210 225 233 249 258 265 263 268 274